Location: Laas
(43.4693°N, 0.3073°E)
Time: 15:22:51
(UTC+00:00)

Cosmos 2297 Rocket - Pass Details

Date: 25 October 2020
Orbit: 838 x 845 km, 71.0° (Epoch: 23 November)

Event Time Altitude Azimuth Distance (km) Brightness Sun altitude
Rises 18:31:27 0° 336° (NNW) 3,413 5.7 -17.3°
Reaches altitude 10° 18:33:55 10° 338° (NNW) 2,474 4.9 -17.8°
Maximum altitude 18:39:36 76° 64° (ENE) 874 2.1 -18.8°
Enters shadow 18:44:33 14° 150° (SSE) 2,199 4.1 -19.7°
